[[{"header":{"parameterUnit":"m.s-1","parameterCategory":1,"la1":30.2991,"la2":30.254,"lo1":-89.0895,"lo2":-89.0444,"dy":0.0017,"dx":0.0017,"nx":28,"ny":28,"refTime":"2025-03-07T09:00:00:Z","depth":0,"parameterNumber":2,"parameterNumberName":"U-component_of_WINDS"},"data":[0,0,0,0,0,0,0,0,0,0,0,0,0,0,0,0,0,0,0,0,0,0,0,0,0,0,0,0,0,0,0,0,0,0,0,0,0,0,0,0,0,0,0,0,0,0,0,0,0,0,0,0,0,0,0,0,0,0,-1.7578,-1.7578,0,-1.7583,-1.7583,-1.7583,-1.7525,-1.7524,-1.7522,-1.7521,-1.7526,-1.7528,-1.753,0,0,0,0,0,0,0,0,0,0,0,0,0,-1.7518,-1.7519,-1.7578,-1.7578,-1.7578,-1.7583,-1.7583,-1.7583,-1.7526,-1.7524,-1.7522,-1.752,-1.7526,-1.7528,-1.753,0,0,0,0,0,0,0,0,0,0,0,0,0,-1.7536,-1.752,-1.7578,-1.755,-1.7547,-1.7583,-1.7583,-1.7583,-1.7526,-1.7524,-1.7521,-1.7519,-1.7525,-1.7528,-1.753,-1.7593,0,0,-1.7538,-1.7539,0,0,0,0,0,0,0,0,-1.7535,-1.7538,-1.7554,-1.7552,-1.7549,-1.7551,-1.7564,-1.7587,-1.7527,-1.7534,-1.7521,-1.7518,-1.7537,-1.7538,-1.7544,-1.7593,-1.7594,-1.7538,-1.7539,-1.754,-1.7541,0,0,0,0,0,0,0,-1.7534,-1.7537,-1.758,-1.7554,-1.7551,-1.7537,-1.7537,-1.7568,-1.7549,-1.7533,-1.7529,-1.7531,-1.7535,-1.7542,-1.7544,-1.7594,-1.7538,-1.754,-1.7541,-1.7542,-1.7694,-1.7696,0,0,0,0,0,0,-1.7536,-1.7537,-1.758,-1.758,-1.7536,-1.754,-1.754,-1.7553,-1.7548,-1.7545,-1.7533,-1.7528,-1.7539,-1.7541,-1.7544,-1.7616,-1.754,-1.7543,-1.7544,-1.7691,-1.7694,-1.7697,0,0,0,0,0,0,-1.7535,-1.7541,-1.758,-1.7557,-1.7561,-1.7544,-1.7559,-1.7554,-1.7561,-1.7548,-1.7544,-1.7543,-1.7537,-1.754,-1.7581,-1.7616,-1.7544,-1.7546,-1.7688,-1.7692,-1.7696,-1.7762,0,0,0,0,0,0,-1.7534,-1.754,-1.7564,-1.7558,-1.7563,-1.7617,-1.7561,-1.7556,-1.7566,-1.756,-1.7557,-1.7554,-1.7536,-1.7578,-1.7583,-1.7618,-1.7548,-1.7685,-1.769,-1.7694,-1.7757,-1.7768,-1.7777,0,0,0,0,0,-1.7532,-1.7583,-1.7566,-1.7571,-1.7592,-1.7619,-1.7621,-1.7599,-1.7569,-1.7592,-1.7584,-1.7554,-1.7611,-1.7582,-1.7588,-1.7624,-1.7683,-1.7688,-1.7694,-1.7752,-1.7766,-1.7777,0,0,0,0,0,0,-1.7594,-1.7582,-1.7562,-1.7614,-1.7618,-1.7609,-1.7638,-1.7614,-1.7627,-1.7621,-1.7592,-1.7592,-1.7637,-1.7635,-1.7603,-1.7684,-1.7642,-1.7649,-1.7684,-1.7697,-1.7707,-1.7706,-1.755,0,0,0,0,0,-1.7614,-1.7636,-1.7625,-1.7671,-1.7674,-1.7656,-1.7667,-1.7649,-1.7652,-1.7654,-1.7648,-1.7652,-1.7671,-1.7684,-1.77,-1.7757,-1.7755,-1.7784,-1.7795,-1.7803,-1.7809,-1.7838,-1.785,-1.7716,-1.7716,-1.7716,0,0,-1.7654,-1.7651,-1.7667,-1.7683,-1.7684,-1.7708,-1.7658,-1.7686,-1.7703,-1.7658,-1.7695,-1.7692,-1.7694,-1.7743,-1.7764,-1.7742,-1.7846,-1.781,-1.7817,-1.7819,-1.7845,-1.7857,-1.7869,-1.772,-1.7719,-1.7718,0,0,-1.774,-1.7741,-1.7778,-1.7781,-1.7783,-1.777,-1.778,-1.7775,-1.777,-1.7808,-1.7774,-1.7795,-1.7828,-1.7831,-1.7837,-1.7924,-1.7897,-1.7931,-1.7984,-1.8012,-1.8022,-1.8031,-1.8061,-1.8072,-1.7937,-1.7937,-1.7937,0,-1.7791,-1.7825,-1.7801,-1.7831,-1.7839,-1.7799,-1.7837,-1.784,-1.7848,-1.7855,-1.783,-1.7871,-1.787,-1.7918,-1.7939,-1.7946,-1.7955,-1.793,-1.8023,-1.8032,-1.804,-1.8068,-1.808,-1.7941,-1.7941,-1.794,-1.794,0,-1.7887,-1.7911,-1.7942,-1.795,-1.7961,-1.7995,-1.7975,-1.799,-1.7972,-1.7962,-1.8,-1.7998,-1.8013,-1.8023,-1.8006,-1.8069,-1.8055,-1.8028,-1.7984,-1.8057,-1.8083,-1.8094,-1.7947,-1.7945,-1.7944,-1.7943,0,0,-1.8011,-1.8005,-1.8017,-1.8019,-1.8019,-1.8037,-1.807,-1.8084,-1.8096,-1.8104,-1.8129,-1.8158,-1.8132,-1.8139,-1.8122,-1.8147,-1.8214,-1.8115,-1.8115,-1.8133,-1.8282,-1.8302,-1.8315,-1.8197,-1.8199,-1.8201,-1.8281,0,-1.8094,-1.8147,-1.8126,-1.8182,-1.8204,-1.8167,-1.8194,-1.8197,-1.8189,-1.8207,-1.8198,-1.8218,-1.8183,-1.8187,-1.821,-1.8201,-1.8244,-1.8195,-1.822,-1.8221,-1.8218,-1.8328,-1.8349,-1.8425,-1.8292,-1.8293,-1.8295,0,-1.8197,-1.8208,-1.8265,-1.826,-1.8269,-1.8294,-1.8305,-1.8322,-1.8325,-1.8317,-1.8325,-1.8302,-1.8333,-1.8291,-1.8332,-1.83,-1.8308,-1.8306,-1.8308,-1.8308,-1.8261,-1.833,-1.8449,-1.846,-1.8311,-1.8309,-1.8308,0,-1.828,-1.8309,-1.8347,-1.835,-1.8346,-1.8364,-1.8364,-1.8364,-1.8373,-1.8383,-1.8389,-1.8403,-1.8411,-1.8422,-1.8403,-1.8374,-1.8447,-1.8403,-1.844,-1.8441,-1.8456,-1.8455,-1.8577,-1.8465,-1.8465,-1.8465,-1.8464,0,-1.8374,-1.841,-1.8384,-1.8407,-1.8446,-1.8422,-1.8461,-1.8457,-1.8457,-1.8478,-1.8448,-1.8468,-1.8443,-1.8462,-1.8447,-1.8483,-1.8487,-1.8481,-1.8477,-1.8483,-1.8483,-1.8487,-1.848,-1.8468,-1.8467,-1.8466,-1.8466,0,-1.8472,-1.8456,-1.8495,-1.8488,-1.8487,-1.8516,-1.8509,-1.853,-1.852,-1.8548,-1.8553,-1.8537,-1.8557,-1.854,-1.8559,-1.855,-1.8597,-1.8585,-1.8596,-1.8592,-1.8629,-1.8625,-1.8756,-1.8771,-1.8652,-1.8653,-1.8654,0,-1.8532,-1.8559,-1.8554,-1.8566,-1.8567,-1.8587,-1.8596,-1.8574,-1.8585,-1.859,-1.861,-1.8628,-1.864,-1.8673,-1.8664,-1.8678,-1.8666,-1.8711,-1.8668,-1.8673,-1.8664,-1.8662,-1.8664,-1.8719,-1.872,-1.8722,-1.8722,0,-1.8639,-1.863,-1.8645,-1.8657,-1.8669,-1.8678,-1.8685,-1.8696,-1.8673,-1.8688,-1.8707,-1.8717,-1.8736,-1.8753,-1.8765,-1.8764,-1.8739,-1.8736,-1.8745,-1.8751,-1.8755,-1.8751,-1.8617,-1.8733,-1.8732,-1.8731,-1.8731,-1.873,-1.8719,-1.874,-1.874,-1.8758,-1.876,-1.8767,-1.8786,-1.8778,-1.8794,-1.8808,-1.8794,-1.8818,-1.8819,-1.8832,-1.8834,-1.8852,-1.8833,-1.8846,-1.8849,-1.8852,-1.8857,-1.8754,-1.8854,-1.8854,-1.8853,-1.8853,-1.8853,0,-1.8822,-1.8821,-1.8837,-1.8847,-1.8861,-1.8837,-1.8843,-1.8856,-1.8877,-1.888,-1.8893,-1.8915,-1.8932,-1.8924,-1.8938,-1.8954,-1.8943,-1.8958,-1.8956,-1.8955,-1.8874,-1.8864,-1.8967,-1.8967,-1.8967,-1.8967,-1.8966,-1.8966,-1.8878,-1.8913,-1.8904,-1.8939,-1.8937,-1.896,-1.8965,-1.8971,-1.8973,-1.8999,-1.9013,-1.9007,-1.9006,-1.902,-1.9034,-1.9031,-1.9037,-1.9056,-1.9049,-1.8973,-1.8961,-1.8951,-1.8941,-1.9058,-1.9058,-1.9129,-1.9129,-1.913]},{"header":{"parameterUnit":"m.s-1","parameterCategory":1,"la1":30.2991,"la2":30.254,"lo1":-89.0895,"lo2":-89.0444,"dy":0.0017,"dx":0.0017,"nx":28,"ny":28,"refTime":"2025-03-07T09:00:00:Z","depth":0,"parameterNumber":3,"parameterNumberName":"V-component_of_WINDS"},"data":[0,0,0,0,0,0,0,0,0,0,0,0,0,0,0,0,0,0,0,0,0,0,0,0,0,0,0,0,0,0,0,0,0,0,0,0,0,0,0,0,0,0,0,0,0,0,0,0,0,0,0,0,0,0,0,0,0,0,-0.4015,-0.4015,0,-0.3962,-0.3961,-0.396,-0.3944,-0.3944,-0.3945,-0.3945,-0.3888,-0.3887,-0.3885,0,0,0,0,0,0,0,0,0,0,0,0,0,-0.4101,-0.41,-0.4015,-0.4015,-0.4014,-0.3962,-0.3961,-0.396,-0.3944,-0.3944,-0.3945,-0.3945,-0.3889,-0.3887,-0.3885,0,0,0,0,0,0,0,0,0,0,0,0,0,-0.4058,-0.41,-0.4015,-0.4,-0.3998,-0.3962,-0.3961,-0.396,-0.3944,-0.3944,-0.3945,-0.3945,-0.389,-0.3887,-0.3885,-0.386,0,0,-0.3876,-0.3875,0,0,0,0,0,0,0,0,-0.406,-0.4054,-0.4003,-0.4001,-0.3998,-0.396,-0.3971,-0.3926,-0.3944,-0.3964,-0.3945,-0.3945,-0.3912,-0.3907,-0.3896,-0.3857,-0.3855,-0.3876,-0.3875,-0.3873,-0.3873,0,0,0,0,0,0,0,-0.4063,-0.4057,-0.3994,-0.4002,-0.3999,-0.3994,-0.3989,-0.3962,-0.3936,-0.3963,-0.3961,-0.3955,-0.3911,-0.3899,-0.3895,-0.3854,-0.3876,-0.3874,-0.3872,-0.3871,-0.3791,-0.3791,0,0,0,0,0,0,-0.4069,-0.4059,-0.3996,-0.3992,-0.4031,-0.3993,-0.3986,-0.3972,-0.3937,-0.3932,-0.3955,-0.3955,-0.3903,-0.3898,-0.3893,-0.3861,-0.3874,-0.3871,-0.387,-0.3792,-0.3791,-0.379,0,0,0,0,0,0,-0.4071,-0.4064,-0.3998,-0.4025,-0.4017,-0.3991,-0.3975,-0.3971,-0.3959,-0.3931,-0.3926,-0.3948,-0.3903,-0.3897,-0.3868,-0.3859,-0.387,-0.3867,-0.3792,-0.3792,-0.3791,-0.3797,0,0,0,0,0,0,-0.4074,-0.4064,-0.4055,-0.4025,-0.4015,-0.3975,-0.3974,-0.3969,-0.3955,-0.3954,-0.3923,-0.3918,-0.3903,-0.3872,-0.3866,-0.3855,-0.3865,-0.3793,-0.3792,-0.3791,-0.3798,-0.3797,-0.3796,0,0,0,0,0,-0.4077,-0.4059,-0.4055,-0.4047,-0.4004,-0.3974,-0.3968,-0.3952,-0.3954,-0.3944,-0.3926,-0.3919,-0.3861,-0.3869,-0.3862,-0.3851,-0.3794,-0.3792,-0.3791,-0.3798,-0.3797,-0.3796,0,0,0,0,0,0,-0.4088,-0.4055,-0.405,-0.4022,-0.4001,-0.3971,-0.3959,-0.3951,-0.3929,-0.3929,-0.3909,-0.3902,-0.3875,-0.386,-0.387,-0.3824,-0.3827,-0.3824,-0.3835,-0.3834,-0.3833,-0.3836,-0.3863,0,0,0,0,0,-0.4088,-0.4067,-0.4039,-0.4017,-0.4007,-0.3985,-0.3971,-0.3961,-0.3938,-0.3928,-0.3908,-0.3886,-0.3862,-0.3847,-0.3824,-0.3796,-0.3788,-0.3784,-0.3784,-0.3783,-0.378,-0.3763,-0.376,-0.3786,-0.3786,-0.3787,0,0,-0.4086,-0.4065,-0.4054,-0.4019,-0.4001,-0.398,-0.3977,-0.3955,-0.3938,-0.3925,-0.3896,-0.3881,-0.3855,-0.3826,-0.3812,-0.3813,-0.3772,-0.3781,-0.3781,-0.3779,-0.3761,-0.3759,-0.3757,-0.3786,-0.3786,-0.3786,0,0,-0.4072,-0.4055,-0.4034,-0.4016,-0.399,-0.3975,-0.397,-0.3941,-0.3931,-0.3902,-0.3892,-0.3871,-0.3832,-0.3813,-0.3798,-0.3777,-0.3769,-0.377,-0.3765,-0.3748,-0.3746,-0.3744,-0.3735,-0.3732,-0.3768,-0.3768,-0.3768,0,-0.4073,-0.404,-0.4024,-0.4002,-0.3987,-0.3974,-0.3953,-0.3936,-0.3903,-0.3893,-0.3894,-0.3844,-0.3825,-0.3791,-0.3786,-0.3775,-0.3768,-0.3773,-0.3748,-0.3745,-0.3743,-0.3734,-0.3731,-0.3768,-0.3768,-0.3768,-0.3768,0,-0.4042,-0.402,-0.4006,-0.3975,-0.3958,-0.3937,-0.3917,-0.3901,-0.3892,-0.3877,-0.3848,-0.3825,-0.3797,-0.3788,-0.3779,-0.3753,-0.3754,-0.3752,-0.3753,-0.3741,-0.3732,-0.3729,-0.3768,-0.3768,-0.3768,-0.3768,0,0,-0.4033,-0.3993,-0.3988,-0.3973,-0.3943,-0.3925,-0.3903,-0.3875,-0.3862,-0.384,-0.382,-0.3787,-0.3784,-0.3768,-0.3756,-0.3742,-0.3724,-0.3741,-0.374,-0.3738,-0.3692,-0.3693,-0.3689,-0.372,-0.3719,-0.3719,-0.3694,0,-0.4014,-0.3973,-0.3958,-0.3924,-0.3902,-0.389,-0.387,-0.3849,-0.3835,-0.3814,-0.3797,-0.3773,-0.3773,-0.3763,-0.3748,-0.373,-0.3715,-0.3731,-0.3699,-0.3699,-0.3705,-0.3685,-0.3686,-0.3664,-0.3691,-0.369,-0.369,0,-0.3986,-0.3963,-0.3927,-0.3899,-0.3889,-0.3872,-0.3845,-0.3826,-0.3801,-0.3791,-0.3773,-0.3762,-0.3737,-0.3742,-0.3706,-0.3718,-0.3704,-0.3693,-0.3692,-0.3687,-0.3692,-0.3678,-0.3656,-0.3652,-0.3684,-0.3685,-0.3685,0,-0.3981,-0.3942,-0.3915,-0.3903,-0.3869,-0.3857,-0.3842,-0.3819,-0.3803,-0.3779,-0.3769,-0.3743,-0.3728,-0.3708,-0.3691,-0.3696,-0.3656,-0.366,-0.3646,-0.3647,-0.3637,-0.3638,-0.3611,-0.3631,-0.3631,-0.3631,-0.3631,0,-0.396,-0.3938,-0.3912,-0.3895,-0.387,-0.3853,-0.3828,-0.3813,-0.3792,-0.3771,-0.376,-0.374,-0.3719,-0.3697,-0.3683,-0.3655,-0.3649,-0.364,-0.3636,-0.364,-0.3641,-0.3629,-0.363,-0.363,-0.3631,-0.3631,-0.3631,0,-0.395,-0.3931,-0.3901,-0.3872,-0.3864,-0.3847,-0.3821,-0.3804,-0.379,-0.3764,-0.3757,-0.3733,-0.3706,-0.3687,-0.3653,-0.3643,-0.3613,-0.361,-0.3621,-0.3619,-0.3606,-0.3607,-0.357,-0.3563,-0.3589,-0.3589,-0.3589,0,-0.3937,-0.392,-0.3889,-0.3874,-0.386,-0.3837,-0.3821,-0.3803,-0.3786,-0.3757,-0.3743,-0.3716,-0.3693,-0.3651,-0.363,-0.3604,-0.3599,-0.3588,-0.3595,-0.3599,-0.3597,-0.3597,-0.3595,-0.3586,-0.3586,-0.3586,-0.3586,0,-0.3916,-0.3907,-0.3885,-0.3859,-0.384,-0.3818,-0.3797,-0.3786,-0.3764,-0.3746,-0.3718,-0.3701,-0.3666,-0.3638,-0.361,-0.3594,-0.3586,-0.3584,-0.3579,-0.3582,-0.3588,-0.3583,-0.3616,-0.3585,-0.3585,-0.3585,-0.3585,-0.3585,-0.3902,-0.3886,-0.3862,-0.3836,-0.3818,-0.3798,-0.3781,-0.3763,-0.374,-0.371,-0.3701,-0.3673,-0.3648,-0.3609,-0.3593,-0.357,-0.357,-0.3563,-0.3561,-0.356,-0.3559,-0.3594,-0.3565,-0.3565,-0.3565,-0.3565,-0.3565,0,-0.3879,-0.3863,-0.384,-0.381,-0.379,-0.3785,-0.3761,-0.3744,-0.3719,-0.3697,-0.3674,-0.3642,-0.3616,-0.3593,-0.3565,-0.3551,-0.3546,-0.3544,-0.3544,-0.354,-0.3561,-0.3567,-0.3548,-0.3548,-0.3548,-0.3548,-0.3548,-0.3548,-0.3865,-0.3836,-0.3825,-0.3787,-0.3771,-0.3743,-0.3729,-0.371,-0.3692,-0.3657,-0.3635,-0.362,-0.3598,-0.3568,-0.3543,-0.3537,-0.3526,-0.3524,-0.3517,-0.3537,-0.3539,-0.354,-0.3546,-0.3523,-0.3523,-0.3498,-0.3498,-0.3498]}]]